Satellite: NO-44
Catalog number: 26931
Epoch time:      10237.74460830
Element set:     541
Inclination:      067.0526 deg
RA of node:       024.7616 deg
Eccentricity:    0.0005152
Arg of perigee:   268.4335 deg
Mean anomaly:     091.6124 deg
Mean motion:   14.29607348 rev/day
Decay rate:      -2.22e-06 rev/day^2
Epoch rev:           46469
Checksum:              293

Satellite: SO-50
Catalog number: 27607
Epoch time:      10237.73422516
Element set:     253
Inclination:      064.5583 deg
RA of node:       145.2736 deg
Eccentricity:    0.0038915
Arg of perigee:   045.5787 deg
Mean anomaly:     314.8487 deg
Mean motion:   14.71567862 rev/day
Decay rate:        6.0e-08 rev/day^2
Epoch rev:           41261
Checksum:              315

Satellite: CO-55
Catalog number: 27844
Epoch time:      10238.52170270
Element set:     921
Inclination:      098.7111 deg
RA of node:       246.4912 deg
Eccentricity:    0.0009778
Arg of perigee:   334.7334 deg
Mean anomaly:     025.3364 deg
Mean motion:   14.20725340 rev/day
Decay rate:        4.9e-07 rev/day^2
Epoch rev:           37107
Checksum:              291

Satellite: CO-57
Catalog number: 27848
Epoch time:      10237.57547667
Element set:     868
Inclination:      098.7164 deg
RA of node:       244.6655 deg
Eccentricity:    0.0009948
Arg of perigee:   341.3497 deg
Mean anomaly:     018.7311 deg
Mean motion:   14.20516514 rev/day
Decay rate:        3.9e-07 rev/day^2
Epoch rev:           37089
Checksum:              351

Satellite: AO-51
Catalog number: 28375
Epoch time:      10237.53086963
Element set:    0758
Inclination:      098.0674 deg
RA of node:       227.0973 deg
Eccentricity:    0.0082864
Arg of perigee:   247.2928 deg
Mean anomaly:     111.9490 deg
Mean motion:   14.40695870 rev/day
Decay rate:        2.6e-07 rev/day^2
Epoch rev:           32349
Checksum:              339

Satellite: GENESAT1
Catalog number: 29655
Epoch time:      10216.61700559
Element set:     226
Inclination:      040.0059 deg
RA of node:       067.3006 deg
Eccentricity:    0.0005079
Arg of perigee:   297.8744 deg
Mean anomaly:     064.7087 deg
Mean motion:   16.44862838 rev/day
Decay rate:  1.0637092e-01 rev/day^2
Epoch rev:           20777
Checksum:              320

Satellite: CP3
Catalog number: 31129
Epoch time:      10237.66511142
Element set:    0662
Inclination:      097.9342 deg
RA of node:       273.5010 deg
Eccentricity:    0.0102906
Arg of perigee:   019.1189 deg
Mean anomaly:     341.3815 deg
Mean motion:   14.52296056 rev/day
Decay rate:       4.47e-06 rev/day^2
Epoch rev:           17794
Checksum:              288

Satellite: CO-65
Catalog number: 32785
Epoch time:      10238.66805290
Element set:     767
Inclination:      097.8914 deg
RA of node:       302.5997 deg
Eccentricity:    0.0015947
Arg of perigee:   057.7690 deg
Mean anomaly:     302.5080 deg
Mean motion:   14.81701655 rev/day
Decay rate:       -2.6e-07 rev/day^2
Epoch rev:           12592
Checksum:              334

Satellite: KKS-1
Catalog number: 33493
Epoch time:      10238.85556688
Element set:     794
Inclination:      098.0921 deg
RA of node:       358.9790 deg
Eccentricity:    0.0018606
Arg of perigee:   273.0474 deg
Mean anomaly:     086.8621 deg
Mean motion:   14.81074751 rev/day
Decay rate:       3.89e-06 rev/day^2
Epoch rev:            8594
Checksum:              351

Satellite: SOHLA-1
Catalog number: 33496
Epoch time:      10237.74995306
Element set:    0187
Inclination:      098.0638 deg
RA of node:       345.9397 deg
Eccentricity:    0.0006431
Arg of perigee:   352.1087 deg
Mean anomaly:     008.0027 deg
Mean motion:   14.69510922 rev/day
Decay rate:        9.1e-07 rev/day^2
Epoch rev:           08509
Checksum:              311

Satellite: TISAT-1
Catalog number: 36799
Epoch time:      10238.69839207
Element set:      64
Inclination:      098.1422 deg
RA of node:       298.5007 deg
Eccentricity:    0.0016303
Arg of perigee:   144.2244 deg
Mean anomaly:     216.0002 deg
Mean motion:   14.80150357 rev/day
Decay rate:       2.79e-06 rev/day^2
Epoch rev:             674
Checksum:              284

Satellite: STUDSAT
Catalog number: 36801
Epoch time:      10237.90438441
Element set:    0078
Inclination:      098.1453 deg
RA of node:       297.6512 deg
Eccentricity:    0.0014774
Arg of perigee:   134.7555 deg
Mean anomaly:     225.4857 deg
Mean motion:   14.79605380 rev/day
Decay rate:       8.01e-06 rev/day^2
Epoch rev:           00662
Checksum:              302

/EX
SB KEPS @ AMSAT  $ORB10238.W
Orbital Elements  10238.WEATHER

HR AMSAT ORBITAL ELEMENTS FOR WEATHER SATELLITES
FROM WA5QGD FORT WORTH,TX August 26, 2010
Send Subscribe/unsubscribe to KEPS at http://www.amsat.org/mailman/listinfo/kep
BID: ORB10238.W
TO ALL RADIO AMATEURS BT

Satellite: NOAA-10
Catalog number: 16969
Epoch time:      10237.68843933
Element set:    0180
Inclination:      098.6534 deg
RA of node:       265.9919 deg
Eccentricity:    0.0012633
Arg of perigee:   012.8942 deg
Mean anomaly:     347.2570 deg
Mean motion:   14.27425069 rev/day
Decay rate:        5.4e-07 rev/day^2
Epoch rev:           24549
Checksum:              327

